Cloud_Cover
100 13 63 8 5 54 97 78 99 6 5 5 5 5 18 100 100 100 100 100 100 100 100 100 100 100 100 100 100 100 100 100 100 100 100 94 97 16 45 6 100 100 100 100 100 100 100 100 100 100 100 100 100 100
98 6 30 5 13 44 5 99 22 91 5 5 5 5 89 100 100 100 100 100 100 100 100 100 100 100 100 100 100 100 100 100 100 96 69 30 5 15 5 96 100 100 98 93 100 82 98 100 100 100 100 100 100 100
100 44 5 5 5 5 5 48 100 100 5 5 5 5 100 100 100 100 100 100 100 100 100 100 100 100 100 100 100 100 100 100 81 77 50 85 21 5 5 37 100 100 100 100 100 86 100 100 100 100 100 100 100 100
97 91 25 74 63 11 5 6 98 5 5 28 89 66 100 100 100 100 94 86 81 100 100 100 100 100 100 100 100 100 100 100 100 99 100 100 54 11 16 13 97 100 100 100 100 100 100 100 100 100 100 100 100 100
100 99 24 88 100 74 70 5 5 5 13 100 100 100 100 100 100 75 36 38 91 75 100 100 100 100 100 100 100 100 100 100 100 100 100 92 40 79 55 86 66 100 100 100 100 100 100 100 100 100 100 100 100 100
71 100 19 100 100 100 90 53 32 50 100 84 95 100 100 100 100 68 44 89 94 75 99 100 100 100 100 100 100 100 100 100 100 100 100 64 8 90 78 13 0 14 100 100 100 100 100 100 100 100 100 100 100 100
63 100 100 100 100 100 100 71 97 100 86 5 12 83 100 100 100 97 44 96 93 69 97 100 100 100 100 100 100 100 100 100 84 100 100 39 15 11 65 59 0 0 100 100 100 100 100 100 100 100 100 100 100 100
49 100 100 100 100 100 100 91 84 90 12 5 4 87 100 100 100 100 100 100 100 100 100 100 100 100 100 100 100 100 100 100 100 100 85 92 95 100 100 5 5 0 87 100 100 24 32 35 100 100 100 100 100 100
38 100 100 100 100 100 100 91 75 62 5 5 4 56 100 98 98 28 100 100 100 100 100 100 100 77 99 100 100 100 100 100 81 98 90 98 96 92 3 1 0 5 36 100 100 100 100 100 100 100 100 100 100 100
73 100 99 85 100 100 100 76 93 5 5 2 5 6 99 100 82 95 95 98 100 100 100 100 100 100 100 100 92 78 100 100 97 42 95 100 98 10 20 3 5 50 21 100 100 100 100 100 100 100 100 100 100 100
94 98 38 100 100 100 97 97 34 25 5 6 52 90 61 100 100 88 94 100 98 100 100 100 100 100 100 100 100 100 77 98 100 81 100 100 100 100 76 7 95 100 78 35 100 100 100 100 100 100 100 100 100 100
99 82 94 100 100 100 91 39 8 7 66 66 95 91 100 100 100 100 100 100 100 100 97 90 100 100 100 100 100 100 87 94 100 94 100 100 73 94 100 100 100 100 100 86 98 100 100 100 100 100 100 100 100 100
100 29 97 100 100 100 100 62 5 7 98 100 100 100 97 22 99 100 100 100 100 99 100 90 85 79 100 100 100 100 100 100 100 100 100 100 97 83 93 100 100 99 100 100 100 100 100 100 100 100 100 100 100 100
99 47 90 100 100 100 100 97 38 98 100 100 100 61 67 7 67 72 100 100 100 100 100 99 78 98 100 100 100 100 84 100 100 100 100 93 100 100 100 100 100 100 100 100 100 100 100 100 100 100 100 100 100 100
97 84 82 100 100 100 100 100 60 30 89 84 89 63 39 6 5 5 11 99 100 100 100 98 83 98 100 99 100 100 100 99 98 100 100 100 100 100 100 100 100 100 100 100 100 100 100 100 100 100 100 100 100 100
100 95 67 100 100 100 100 100 85 70 36 87 95 60 6 76 78 92 73 57 29 99 100 100 100 100 100 99 100 100 100 100 100 100 100 100 100 100 100 100 100 100 100 100 100 100 100 100 100 100 100 100 100 100
91 64 100 100 100 100 100 100 100 46 84 94 95 39 61 99 85 99 98 94 76 100 100 100 100 100 100 100 100 100 98 100 100 100 100 100 100 100 100 100 100 100 100 100 100 100 100 100 100 100 100 100 100 100
84 86 100 100 100 100 100 100 100 82 93 73 13 5 55 93 82 100 45 21 46 100 91 100 96 93 99 100 99 100 100 100 100 100 100 100 100 100 100 100 100 100 100 100 100 100 100 100 100 100 100 100 100 100
98 100 100 100 100 100 100 100 100 100 47 47 6 29 56 92 83 56 32 10 26 100 91 99 84 100 96 100 100 100 100 100 100 100 100 100 100 100 100 100 100 100 100 100 100 100 100 100 100 100 100 100 100 100
99 100 100 100 100 100 100 100 100 100 99 49 14 5 72 100 100 92 12 5 38 70 77 93 100 99 100 100 100 100 100 100 100 100 100 100 100 100 100 100 100 100 100 100 100 100 100 100 100 100 100 100 100 100
82 100 100 100 100 100 100 100 100 100 93 65 44 17 100 94 100 91 56 46 58 97 100 94 100 100 100 100 100 100 100 100 100 100 100 100 100 100 100 100 100 100 100 100 100 100 100 100 100 100 100 100 100 100
100 100 100 100 100 100 100 100 100 100 94 71 60 15 98 99 100 86 59 89 98 92 93 93 100 100 100 100 100 100 100 100 100 100 100 98 100 100 100 100 100 100 100 100 100 100 100 100 100 100 100 100 100 100
100 99 100 100 100 100 100 100 100 100 94 62 57 93 94 100 79 37 88 80 91 95 98 97 96 95 100 100 100 100 100 100 100 100 100 100 100 100 94 87 97 94 100 100 100 100 100 100 100 100 100 100 100 100
100 100 100 100 100 100 100 100 100 97 98 68 56 93 100 89 84 24 96 100 76 85 86 99 100 89 90 100 100 100 100 100 100 100 100 100 100 100 100 99 88 66 79 82 96 94 85 94 100 100 100 100 100 100
100 100 100 100 100 100 100 100 100 100 98 54 49 52 72 85 85 71 95 100 89 100 96 96 92 89 100 94 100 100 100 100 100 100 100 100 100 100 100 100 98 99 90 52 88 91 95 92 92 100 100 100 100 100
100 99 100 100 100 100 100 100 100 100 80 46 41 26 6 11 33 99 82 75 99 99 100 100 98 70 97 100 95 100 100 100 100 100 100 100 100 100 100 100 100 100 100 98 100 78 99 100 98 100 100 100 100 100
100 100 100 100 100 100 100 100 93 75 63 56 44 32 14 96 100 54 100 95 93 75 81 83 70 100 100 100 79 100 100 100 100 100 100 100 100 100 100 100 100 100 100 100 100 98 96 80 83 90 100 100 100 96
100 100 100 100 100 100 100 100 100 91 36 33 19 28 57 11 52 100 61 61 62 72 99 92 29 58 80 96 100 100 84 49 100 100 100 100 100 100 100 100 100 100 100 100 100 100 100 100 100 92 78 95 100 100
100 100 100 100 100 100 100 100 86 54 42 47 55 99 100 100 100 74 63 76 98 84 89 100 96 72 5 5 6 64 59 34 5 48 100 100 100 100 100 100 100 100 100 100 100 100 98 100 100 100 100 100 98 100
100 100 100 100 100 100 100 99 68 60 60 54 30 77 92 100 100 98 90 97 85 87 93 63 98 54 92 48 98 50 77 79 74 14 48 100 100 95 100 100 100 100 100 100 100 100 100 100 100 100 98 98 100 100
100 100 100 100 100 100 100 86 70 59 56 50 83 73 87 97 99 100 85 66 97 93 93 93 99 96 92 100 100 100 96 34 78 71 47 73 94 93 94 93 100 100 100 100 100 100 100 100 100 100 100 99 95 100
100 100 100 100 100 96 88 63 80 73 84 38 36 81 98 93 100 100 98 95 100 100 84 70 87 96 95 98 93 80 52 88 86 75 75 98 84 58 100 100 100 100 100 100 100 100 100 100 100 100 100 100 100 100
100 100 100 100 100 99 83 52 51 68 64 92 90 84 74 46 79 98 99 100 95 55 76 89 92 82 92 85 60 100 100 88 96 93 100 94 78 94 89 97 86 100 100 100 100 100 100 100 100 100 100 100 100 100